[[{"header":{"parameterUnit":"m.s-1","parameterCategory":1,"la1":30.2991,"la2":30.254,"lo1":-89.0895,"lo2":-89.0444,"dy":0.0017,"dx":0.0017,"nx":28,"ny":28,"refTime":"2025-12-14T03:00:00:Z","depth":0,"parameterNumber":2,"parameterNumberName":"U-component_of_WINDS"},"data":[0,0,0,0,0,0,0,0,0,0,0,0,0,0,0,0,0,0,0,0,0,0,0,0,0,0,0,0,0,0,0,0,0,0,0,0,0,0,0,0,0,0,0,0,0,0,0,0,0,0,0,0,0,0,0,0,0,0,-1.7028,-1.7028,0,-1.7035,-1.7035,-1.7035,-1.6976,-1.6974,-1.6972,-1.6971,-1.6981,-1.6983,-1.6985,0,0,0,0,0,0,0,0,0,0,0,0,0,-1.6967,-1.6968,-1.7028,-1.7028,-1.7028,-1.7035,-1.7035,-1.7035,-1.6976,-1.6974,-1.6972,-1.697,-1.6981,-1.6983,-1.6985,0,0,0,0,0,0,0,0,0,0,0,0,0,-1.6986,-1.6969,-1.7028,-1.7,-1.6997,-1.7035,-1.7035,-1.7035,-1.6977,-1.6974,-1.6972,-1.6969,-1.698,-1.6983,-1.6985,-1.7052,0,0,-1.6994,-1.6995,0,0,0,0,0,0,0,0,-1.6985,-1.6988,-1.7004,-1.7002,-1.6999,-1.7002,-1.7017,-1.7041,-1.6977,-1.6984,-1.6971,-1.6968,-1.699,-1.6992,-1.6999,-1.7052,-1.7053,-1.6994,-1.6995,-1.6997,-1.6997,0,0,0,0,0,0,0,-1.6984,-1.6988,-1.7031,-1.7004,-1.7001,-1.6987,-1.6987,-1.7022,-1.7001,-1.6984,-1.6979,-1.6981,-1.6989,-1.6996,-1.6999,-1.7053,-1.6994,-1.6996,-1.6998,-1.6999,-1.7163,-1.7166,0,0,0,0,0,0,-1.6986,-1.6987,-1.7031,-1.7031,-1.6985,-1.6991,-1.699,-1.7004,-1.7001,-1.6998,-1.6983,-1.6978,-1.6993,-1.6996,-1.6999,-1.7078,-1.6997,-1.6999,-1.7001,-1.7161,-1.7164,-1.7167,0,0,0,0,0,0,-1.6985,-1.699,-1.703,-1.7008,-1.7012,-1.6994,-1.7009,-1.7005,-1.7013,-1.7,-1.6997,-1.6994,-1.6991,-1.6995,-1.7039,-1.7078,-1.7,-1.7003,-1.7158,-1.7162,-1.7166,-1.7237,0,0,0,0,0,0,-1.6983,-1.699,-1.7015,-1.7009,-1.7013,-1.707,-1.7012,-1.7007,-1.7017,-1.7011,-1.701,-1.7008,-1.6989,-1.7036,-1.7042,-1.708,-1.7005,-1.7154,-1.7159,-1.7164,-1.7231,-1.7243,-1.7253,0,0,0,0,0,-1.6981,-1.7035,-1.7016,-1.7022,-1.7043,-1.7072,-1.7075,-1.7052,-1.7021,-1.7046,-1.7038,-1.7008,-1.7072,-1.7041,-1.7047,-1.7087,-1.7152,-1.7158,-1.7164,-1.7226,-1.7241,-1.7253,0,0,0,0,0,0,-1.7046,-1.7033,-1.7013,-1.7066,-1.7071,-1.7062,-1.7093,-1.7068,-1.7083,-1.7076,-1.7048,-1.7048,-1.7098,-1.7096,-1.7062,-1.7152,-1.7106,-1.7114,-1.7151,-1.7165,-1.7176,-1.7176,-1.7007,0,0,0,0,0,-1.7067,-1.709,-1.7078,-1.7126,-1.713,-1.7111,-1.7123,-1.7105,-1.7109,-1.7111,-1.7106,-1.7113,-1.7134,-1.7149,-1.7168,-1.723,-1.723,-1.726,-1.7271,-1.7281,-1.7288,-1.7322,-1.7336,-1.7187,-1.7187,-1.7187,0,0,-1.7109,-1.7105,-1.7122,-1.7139,-1.7141,-1.7167,-1.7113,-1.7143,-1.7163,-1.7116,-1.7158,-1.7155,-1.716,-1.7213,-1.7237,-1.7214,-1.7329,-1.7288,-1.7296,-1.7298,-1.733,-1.7344,-1.7357,-1.7191,-1.7191,-1.719,0,0,-1.7201,-1.72,-1.724,-1.7243,-1.7246,-1.7233,-1.7243,-1.7238,-1.7234,-1.7276,-1.7241,-1.7265,-1.7302,-1.7308,-1.7316,-1.741,-1.7384,-1.7417,-1.7475,-1.7509,-1.7521,-1.7531,-1.7567,-1.758,-1.7424,-1.7425,-1.7425,0,-1.7254,-1.7292,-1.7264,-1.7297,-1.7306,-1.7264,-1.7306,-1.731,-1.7319,-1.7327,-1.7301,-1.7348,-1.7348,-1.7403,-1.7426,-1.7433,-1.7445,-1.7418,-1.7521,-1.7531,-1.754,-1.7574,-1.7587,-1.7429,-1.7428,-1.7428,-1.7427,0,-1.7358,-1.7384,-1.7417,-1.7427,-1.7439,-1.7477,-1.7456,-1.7472,-1.7453,-1.7444,-1.7487,-1.7486,-1.7505,-1.7516,-1.7498,-1.757,-1.7556,-1.7525,-1.7479,-1.7559,-1.7591,-1.7603,-1.7435,-1.7433,-1.7432,-1.7431,0,0,-1.7492,-1.7486,-1.7498,-1.7503,-1.7503,-1.7524,-1.7559,-1.7577,-1.7592,-1.76,-1.7631,-1.7664,-1.7636,-1.7645,-1.7627,-1.7656,-1.7733,-1.7623,-1.7622,-1.7645,-1.7814,-1.7839,-1.7854,-1.7715,-1.7717,-1.7719,-1.7815,0,-1.7582,-1.7642,-1.7619,-1.7681,-1.7707,-1.7667,-1.7698,-1.7702,-1.7695,-1.7716,-1.7707,-1.7732,-1.7693,-1.7698,-1.7725,-1.7718,-1.7767,-1.7711,-1.7745,-1.7747,-1.7747,-1.787,-1.7895,-1.7985,-1.7827,-1.7829,-1.783,0,-1.7697,-1.7709,-1.7774,-1.777,-1.778,-1.7809,-1.7824,-1.7844,-1.7848,-1.7841,-1.7851,-1.7827,-1.7863,-1.7816,-1.7866,-1.7828,-1.7841,-1.784,-1.7843,-1.7847,-1.7795,-1.7879,-1.8013,-1.8028,-1.7849,-1.7847,-1.7846,0,-1.779,-1.7823,-1.7866,-1.7871,-1.7867,-1.7889,-1.7889,-1.789,-1.7903,-1.7916,-1.7924,-1.7942,-1.7952,-1.7967,-1.7949,-1.7916,-1.8003,-1.7954,-1.8,-1.8001,-1.8021,-1.8021,-1.8162,-1.8026,-1.8026,-1.8026,-1.8026,0,-1.7895,-1.7937,-1.7908,-1.7935,-1.7981,-1.7954,-1.8001,-1.7996,-1.7999,-1.8025,-1.7991,-1.8017,-1.799,-1.8014,-1.8,-1.8046,-1.805,-1.8046,-1.8042,-1.805,-1.8051,-1.806,-1.8054,-1.803,-1.8029,-1.8028,-1.8027,0,-1.8008,-1.799,-1.8035,-1.8028,-1.8028,-1.8062,-1.8057,-1.8082,-1.8072,-1.8106,-1.8112,-1.8097,-1.8123,-1.8106,-1.8132,-1.8123,-1.8183,-1.8169,-1.8181,-1.8179,-1.8226,-1.8223,-1.8379,-1.8399,-1.8249,-1.8251,-1.8252,0,-1.8077,-1.8108,-1.8105,-1.812,-1.8122,-1.8146,-1.8158,-1.8133,-1.8148,-1.8156,-1.8181,-1.8204,-1.8221,-1.8265,-1.8257,-1.8278,-1.8266,-1.8319,-1.8269,-1.8277,-1.8269,-1.8269,-1.8273,-1.833,-1.8332,-1.8333,-1.8335,0,-1.8203,-1.8192,-1.8211,-1.8227,-1.8243,-1.8255,-1.8264,-1.8278,-1.8253,-1.8271,-1.8297,-1.8311,-1.8338,-1.8362,-1.8379,-1.838,-1.8355,-1.835,-1.8362,-1.8372,-1.8378,-1.8378,-1.8211,-1.8347,-1.8346,-1.8345,-1.8344,-1.8344,-1.8297,-1.8323,-1.8325,-1.8348,-1.8352,-1.8361,-1.8385,-1.8378,-1.8399,-1.8418,-1.8402,-1.8434,-1.8439,-1.8459,-1.8464,-1.8489,-1.8468,-1.8485,-1.8489,-1.8495,-1.8502,-1.8373,-1.8492,-1.8492,-1.8491,-1.8491,-1.8491,0,-1.8422,-1.8421,-1.8442,-1.8456,-1.8474,-1.8446,-1.8455,-1.8472,-1.85,-1.8506,-1.8524,-1.8555,-1.8578,-1.8572,-1.8594,-1.8615,-1.8604,-1.8622,-1.8621,-1.8623,-1.8519,-1.8507,-1.8631,-1.8631,-1.8631,-1.8631,-1.8631,-1.8631,-1.849,-1.8534,-1.8524,-1.857,-1.8569,-1.8599,-1.8607,-1.8616,-1.8621,-1.8656,-1.8675,-1.867,-1.8672,-1.8694,-1.8715,-1.8712,-1.8723,-1.8746,-1.8739,-1.8643,-1.863,-1.8616,-1.8605,-1.8748,-1.8748,-1.8841,-1.8842,-1.8842]},{"header":{"parameterUnit":"m.s-1","parameterCategory":1,"la1":30.2991,"la2":30.254,"lo1":-89.0895,"lo2":-89.0444,"dy":0.0017,"dx":0.0017,"nx":28,"ny":28,"refTime":"2025-12-14T03:00:00:Z","depth":0,"parameterNumber":3,"parameterNumberName":"V-component_of_WINDS"},"data":[0,0,0,0,0,0,0,0,0,0,0,0,0,0,0,0,0,0,0,0,0,0,0,0,0,0,0,0,0,0,0,0,0,0,0,0,0,0,0,0,0,0,0,0,0,0,0,0,0,0,0,0,0,0,0,0,0,0,-1.6376,-1.6376,0,-1.6377,-1.6377,-1.6377,-1.6345,-1.6344,-1.6343,-1.6342,-1.6343,-1.6344,-1.6345,0,0,0,0,0,0,0,0,0,0,0,0,0,-1.6345,-1.6345,-1.6376,-1.6376,-1.6376,-1.6377,-1.6377,-1.6377,-1.6345,-1.6344,-1.6343,-1.6342,-1.6343,-1.6344,-1.6345,0,0,0,0,0,0,0,0,0,0,0,0,0,-1.6353,-1.6346,-1.6376,-1.636,-1.6359,-1.6377,-1.6377,-1.6377,-1.6345,-1.6344,-1.6343,-1.6342,-1.6342,-1.6344,-1.6345,-1.6379,0,0,-1.6349,-1.6349,0,0,0,0,0,0,0,0,-1.6353,-1.6355,-1.6363,-1.6361,-1.636,-1.636,-1.6367,-1.6378,-1.6346,-1.635,-1.6342,-1.6341,-1.635,-1.635,-1.6353,-1.6379,-1.6379,-1.6349,-1.635,-1.635,-1.635,0,0,0,0,0,0,0,-1.6352,-1.6354,-1.6377,-1.6363,-1.6361,-1.6353,-1.6353,-1.6369,-1.6357,-1.635,-1.6348,-1.6348,-1.6349,-1.6352,-1.6353,-1.6379,-1.6349,-1.635,-1.6351,-1.6351,-1.6432,-1.6434,0,0,0,0,0,0,-1.6354,-1.6354,-1.6377,-1.6377,-1.6353,-1.6354,-1.6354,-1.6361,-1.6357,-1.6355,-1.6349,-1.6347,-1.6351,-1.6352,-1.6353,-1.6393,-1.635,-1.6351,-1.6352,-1.6431,-1.6433,-1.6434,0,0,0,0,0,0,-1.6354,-1.6356,-1.6376,-1.6365,-1.6367,-1.6356,-1.6364,-1.6362,-1.6365,-1.6357,-1.6354,-1.6355,-1.635,-1.6351,-1.6373,-1.6393,-1.6352,-1.6353,-1.6429,-1.6431,-1.6433,-1.6473,0,0,0,0,0,0,-1.6353,-1.6356,-1.6369,-1.6365,-1.6367,-1.6397,-1.6365,-1.6363,-1.6368,-1.6364,-1.6361,-1.636,-1.6349,-1.6371,-1.6374,-1.6394,-1.6354,-1.6427,-1.643,-1.6433,-1.647,-1.6477,-1.6482,0,0,0,0,0,-1.6352,-1.638,-1.637,-1.6373,-1.6383,-1.6398,-1.6399,-1.6386,-1.6369,-1.6382,-1.6377,-1.636,-1.639,-1.6373,-1.6376,-1.6397,-1.6426,-1.6429,-1.6433,-1.6468,-1.6475,-1.6482,0,0,0,0,0,0,-1.6387,-1.6379,-1.6368,-1.6396,-1.6398,-1.6392,-1.6408,-1.6395,-1.6401,-1.6397,-1.6381,-1.638,-1.6405,-1.6402,-1.6385,-1.643,-1.6405,-1.6409,-1.6431,-1.6438,-1.6444,-1.6444,-1.6355,0,0,0,0,0,-1.6398,-1.641,-1.6403,-1.6428,-1.643,-1.6419,-1.6425,-1.6415,-1.6416,-1.6416,-1.6412,-1.6413,-1.6423,-1.643,-1.6438,-1.6469,-1.6469,-1.6484,-1.649,-1.6495,-1.6499,-1.6516,-1.6524,-1.6445,-1.6445,-1.6445,0,0,-1.642,-1.6418,-1.6427,-1.6435,-1.6435,-1.6449,-1.642,-1.6435,-1.6445,-1.6418,-1.6439,-1.6436,-1.6436,-1.6463,-1.6474,-1.6462,-1.6521,-1.6499,-1.6503,-1.6505,-1.6521,-1.6528,-1.6535,-1.6447,-1.6446,-1.6446,0,0,-1.6469,-1.6468,-1.649,-1.6491,-1.6491,-1.6484,-1.6489,-1.6485,-1.6483,-1.6503,-1.6484,-1.6495,-1.6511,-1.6513,-1.6516,-1.6565,-1.655,-1.6568,-1.66,-1.6616,-1.6623,-1.6628,-1.6647,-1.6654,-1.6572,-1.6572,-1.6572,0,-1.6497,-1.6517,-1.6502,-1.6519,-1.6524,-1.65,-1.6522,-1.6523,-1.6527,-1.6531,-1.6516,-1.6537,-1.6536,-1.6563,-1.6575,-1.6578,-1.6584,-1.6569,-1.6623,-1.6628,-1.6633,-1.6651,-1.6658,-1.6574,-1.6574,-1.6574,-1.6573,0,-1.6553,-1.6567,-1.6584,-1.6589,-1.6595,-1.6614,-1.6602,-1.661,-1.6599,-1.6593,-1.6614,-1.6611,-1.6619,-1.6624,-1.6614,-1.665,-1.6643,-1.6626,-1.6601,-1.6643,-1.666,-1.6666,-1.6577,-1.6577,-1.6576,-1.6575,0,0,-1.6625,-1.6621,-1.6627,-1.663,-1.6628,-1.6639,-1.6657,-1.6665,-1.6673,-1.6675,-1.6691,-1.6705,-1.669,-1.6693,-1.6682,-1.6697,-1.6738,-1.6678,-1.6678,-1.6691,-1.6779,-1.6793,-1.6801,-1.6727,-1.6728,-1.6729,-1.678,0,-1.6673,-1.6705,-1.6692,-1.6725,-1.6738,-1.6715,-1.6731,-1.6732,-1.6727,-1.6737,-1.6731,-1.6742,-1.672,-1.6722,-1.6735,-1.673,-1.6755,-1.6726,-1.6742,-1.6743,-1.6744,-1.681,-1.6824,-1.6872,-1.6786,-1.6787,-1.6788,0,-1.6735,-1.6741,-1.6775,-1.6772,-1.6777,-1.6792,-1.6799,-1.6808,-1.6809,-1.6804,-1.6808,-1.6794,-1.6811,-1.6785,-1.6809,-1.679,-1.6795,-1.6793,-1.6795,-1.6797,-1.6769,-1.6816,-1.6887,-1.6895,-1.6797,-1.6797,-1.6796,0,-1.6786,-1.6802,-1.6825,-1.6828,-1.6824,-1.6835,-1.6834,-1.6834,-1.684,-1.6845,-1.6849,-1.6856,-1.686,-1.6866,-1.6854,-1.6836,-1.688,-1.6853,-1.6877,-1.6878,-1.6889,-1.6889,-1.6965,-1.689,-1.689,-1.689,-1.689,0,-1.6843,-1.6865,-1.6849,-1.6863,-1.6887,-1.6871,-1.6896,-1.6892,-1.6892,-1.6905,-1.6885,-1.6898,-1.688,-1.6891,-1.6882,-1.6904,-1.6906,-1.6903,-1.69,-1.6906,-1.6906,-1.691,-1.6907,-1.6892,-1.6891,-1.6891,-1.6891,0,-1.6905,-1.6895,-1.6918,-1.6913,-1.6913,-1.6931,-1.6927,-1.694,-1.6932,-1.6949,-1.6952,-1.6942,-1.6954,-1.6942,-1.6953,-1.6946,-1.6977,-1.6968,-1.6977,-1.6975,-1.7001,-1.7,-1.7083,-1.7094,-1.7011,-1.7012,-1.7012,0,-1.6943,-1.696,-1.6957,-1.6964,-1.6965,-1.6977,-1.6983,-1.6968,-1.6975,-1.6977,-1.699,-1.7,-1.7008,-1.7028,-1.7021,-1.7029,-1.7022,-1.7051,-1.7023,-1.7029,-1.7025,-1.7025,-1.7027,-1.7057,-1.7058,-1.7059,-1.706,0,-1.7012,-1.7006,-1.7016,-1.7024,-1.7032,-1.7037,-1.7041,-1.7048,-1.7032,-1.7041,-1.7053,-1.7059,-1.7071,-1.7082,-1.7088,-1.7087,-1.7071,-1.7068,-1.7075,-1.7081,-1.7086,-1.7086,-1.6994,-1.7067,-1.7066,-1.7066,-1.7065,-1.7065,-1.7064,-1.7079,-1.7079,-1.709,-1.7092,-1.7096,-1.7108,-1.7103,-1.7113,-1.7121,-1.7111,-1.7127,-1.7127,-1.7134,-1.7134,-1.7146,-1.7134,-1.7143,-1.7145,-1.7148,-1.7153,-1.7083,-1.7147,-1.7147,-1.7146,-1.7146,-1.7146,0,-1.7134,-1.7133,-1.7143,-1.715,-1.7159,-1.7143,-1.7146,-1.7155,-1.7169,-1.717,-1.7178,-1.7193,-1.7203,-1.7197,-1.7206,-1.7216,-1.7209,-1.7219,-1.7219,-1.722,-1.7162,-1.7157,-1.7225,-1.7225,-1.7225,-1.7225,-1.7225,-1.7225,-1.7171,-1.7195,-1.7189,-1.7213,-1.7211,-1.7227,-1.723,-1.7234,-1.7235,-1.7252,-1.7261,-1.7257,-1.7255,-1.7264,-1.7273,-1.727,-1.7275,-1.7288,-1.7284,-1.7231,-1.7223,-1.7216,-1.7211,-1.7289,-1.7289,-1.734,-1.7341,-1.7341]}]]